Miscellaneous Local Product
Issued by NWS Hastings, NE

Home | Current Version | Previous Version | Text Only | Print | Product List | Glossary Off
Versions: 1 2 3 4 5 6 7 8 9 10 11 12 13 14 15 16 17 18 19 20 21 22 23 24 25 26 27 28 29 30 31 32 33 34 35 36 37 38 39 40 41 42 43 44 45 46 47 48 49 50

000
AXUS43 KGID 200402
MISGRI

GID CWA HOURLY WEATHER ROUNDUP
NATIONAL WEATHER SERVICE HASTINGS NE
1100 PM CDT FRI SEP 19 2014

NOTE: "FAIR" INDICATES FEW OR NO CLOUDS BELOW 12,000 FEET WITH NO
SIGNIFICANT WEATHER AND/OR OBSTRUCTIONS TO VISIBILITY.

...SOUTH CENTRAL NEBRASKA...

CITY           SKY/WX    TMP DP  RH WIND       PRES   REMARKS
GRAND ISLAND   CLEAR     78  62  57 S20G28    29.83S
HASTINGS       CLEAR     75  59  57 S13       29.86S
KEARNEY        CLEAR     73  59  60 S17       29.86S
ORD            PTCLDY    75  61  61 SW8       29.81R
YORK           CLEAR     72  66  83 S10       29.84S
AURORA         CLEAR     76  59  55 S15G22    29.83S
LEXINGTON      PTCLDY    76  60  58 S14G21    29.85S
HOLDREGE       CLEAR     74  59  58 S15       29.86F
HEBRON         CLEAR     73  64  73 S9        29.89R

...NEBRASKA PANHANDLE...

CITY           SKY/WX    TMP DP  RH WIND       PRES   REMARKS
CHADRON        CLEAR     64  53  67 N6        29.95R
ALLIANCE       PTCLDY    66  51  58 NE6       29.94R
SCOTTSBLUFF    PTCLDY    65  51  60 NW3       29.96R
SIDNEY         MOCLDY    65  56  72 SW8       29.98R

...WESTERN AND NORTH CENTRAL NEBRASKA...

CITY           SKY/WX    TMP DP  RH WIND       PRES   REMARKS
VALENTINE      CLEAR     62  56  80 W7        29.86R
AINSWORTH      PTCLDY    63  57  83 S5        29.85S
ONEILL         PTCLDY    70  64  81 NW6       29.81S
BROKEN BOW     MOCLDY    76  61  59 SW6       29.85R
IMPERIAL       CLOUDY    75  59  57 S15       29.88S
NORTH PLATTE   CLOUDY    72  60  66 W5        29.86R
MCCOOK         MOCLDY    75  58  55 S10       29.88R

...EASTERN NEBRASKA...

CITY           SKY/WX    TMP DP  RH WIND       PRES   REMARKS
NORFOLK        MOCLDY    77  64  64 SW18G28   29.76R
SO SIOUX CITY  CLOUDY    77  67  71 NW17G26   29.77R
TEKAMAH        CLEAR     76  69  79 S13       29.78R
ALBION         CLEAR     73  62  68 SW8       29.79S
OMAHA EPPLEY   PTCLDY    75  68  78 S17       29.81S
OFFUTT AFB     CLEAR     74  73  99 S15       29.81F
MILLARD        CLEAR     75  69  81 S9        29.81S
LINCOLN        CLEAR     76  69  79 S20       29.83F
NEBRASKA CITY    N/A     72  63  74 S17       29.86F
BEATRICE       CLEAR     73  68  84 S13       29.88S
FALLS CITY     CLEAR     71  68  90 S14       29.90R

...NORTHERN KANSAS...

CITY           SKY/WX    TMP DP  RH WIND       PRES   REMARKS
GOODLAND       CLEAR     69  60  73 S13       29.95R
HILL CITY      CLEAR     75  59  57 S8        29.91R
NORTON         CLEAR     75  55  50 S13G18    29.89R
SMITH CENTER   CLEAR     70  61  73 S9        29.90S
BELOIT         CLEAR     72  63  73 SE5       29.90R
HAYS           PTCLDY    72  59  64 S9        29.93R
RUSSELL        PTCLDY    71  61  70 S10       29.92R
CONCORDIA      PTCLDY    74  66  76 S14       29.91R
SALINA         CLEAR     76  65  68 S10       29.92R
TOPEKA         PTCLDY    72  69  90 S10       29.95R



USA.gov is the U.S. government's official web portal to all federal, state and local government web resources and services.